This demonstration page uses our WeatherBlox Daily Observations layout. Learn more.

Left ArrowRight Arrow

39.92423, -83.80882

Hourly Observations for March 3, 2017

Temp ( °F °C ) Dew Point ( °F °C ) Humidity (%) Winds ( mph kmh ) Pressure ( in mb ) Visibility ( mi km ) Precip ( " mm )
12:45 am 00:45 Cloudy 28 -2 23 -5 80 80 NW 13 20 30.39 1029 10 16.0934 0 0.0254
12:56 am 00:56 Mostly Cloudy 28 -2.2 23 -5 81 81 NW 10 17 30.35 1028 10 16.0934 0 0.0254
1:56 am 01:56 Partly Cloudy 27 -2.8 22 -5.6 81 81 WNW 12 19 30.37 1028 10 16.0934 0 0
2:56 am 02:56 Clear 26 -3.3 21 -6.1 81 81 W 10 17 30.37 1028 10 16.0934 0 0
4:56 am 04:56 Partly Cloudy 26 -3.3 21 -6.1 81 81 W 9 15 30.39 1029 10 16.0934 0 0
5:56 am 05:56 Partly Cloudy 25 -3.9 21 -6.1 85 85 W 8 13 30.4 1030 10 16.0934 0 0
6:47 am 06:47 Mostly Cloudy with Light Snow 27 -3 23 -5 86 86 WNW 13 20 30.45 1031 3 4.82802 0 0.0254
6:56 am 06:56 Cloudy with Light Snow 26 -3.3 22 -5.6 84 84 WNW 10 17 30.43 1030 6 9.65604 0 0.0254
7:18 am 07:18 Cloudy with Light Snow 27 -3 21 -6 80 80 WNW 9 15 30.45 1031 9 14.48406 0 0.0254
7:56 am 07:56 Cloudy 26 -3.3 20 -6.7 78 78 NW 12 19 30.46 1032 10 16.0934 0 0.0254
8:56 am 08:56 Partly Cloudy 28 -2.2 19 -7.2 69 69 WNW 14 22 30.5 1033 10 16.0934 0 0
9:56 am 09:56 Mostly Cloudy 29 -1.7 17 -8.3 61 61 NW 20 31 30.52 1034 10 16.0934 0 0
10:56 am 10:56 Cloudy 29 -1.7 17 -8.3 61 61 NW 10 17 30.55 1035 10 16.0934 0 0
11:56 am 11:56 Mostly Cloudy 30 -1.1 16 -8.9 56 56 WNW 17 28 30.56 1035 10 16.0934 0 0
12:56 pm 12:56 Mostly Cloudy 32 0 16 -8.9 52 52 NW 16 26 30.56 1035 10 16.0934 0 0
1:56 pm 13:56 Cloudy 32 0 15 -9.4 50 50 WNW 20 31 30.56 1035 10 16.0934 0 0
2:56 pm 14:56 Mostly Cloudy 33 0.6 14 -10 45 45 NW 20 31 30.57 1035 10 16.0934 0 0
3:56 pm 15:56 Mostly Cloudy 32 0 13 -10.6 45 45 NW 13 20 30.58 1036 10 16.0934 0 0
4:56 pm 16:56 Partly Cloudy 31 -0.6 14 -10 49 49 W 15 24 30.58 1036 10 16.0934 0 0
5:56 pm 17:56 Sunny 31 -0.6 14 -10 49 49 WNW 15 24 30.59 1036 10 16.0934 0 0
6:56 pm 18:56 Clear 28 -2.2 13 -10.6 53 53 WNW 12 19 30.6 1036 10 16.0934 0 0
7:56 pm 19:56 Clear 25 -3.9 13 -10.6 60 60 NW 6 9 30.6 1036 10 16.0934 0 0
8:56 pm 20:56 Clear 25 -3.9 14 -10 63 63 W 6 9 30.61 1037 10 16.0934 0 0
9:56 pm 21:56 Clear 25 -3.9 15 -9.4 66 66 WNW 5 7 30.61 1037 10 16.0934 0 0
10:56 pm 22:56 Clear 24 -4.4 17 -8.3 75 75 W 5 7 30.63 1037 10 16.0934 0 0
11:56 pm 23:56 Clear 25 -3.9 14 -10 63 63 Calm 30.62 1037 10 16.0934 0 0

Powered by AerisWeather